Laramie, WY

9:05 AM MDT on August 23, 2017 (GMT -0600)
Laramie Regional

Weather History for KLAR - January, 2013

Change the Weather History Date:

Wednesday, January 16, 2013

  Actual Average Record
Temperature  
Mean Temperature 15 °F 22 °F  
Max Temperature 26 °F 34 °F 52 °F (2000)
Min Temperature 4 °F 10 °F -28 °F (1957)
Degree Days  
Heating Degree Days 50 43  
Month to date heating degree days 888 689  
Since 1 July heating degree days 4098 4362  
Cooling Degree Days 0 0  
Month to date cooling degree days 0 0  
Year to date cooling degree days 0 0  
Moisture  
Dew Point 9 °F    
Average Humidity 77    
Maximum Humidity 91    
Minimum Humidity 63    
Precipitation  
Precipitation 0.00 in 0.01 in 0.40 in (1967)
Month to date precipitation T 0.13  
Year to date precipitation T 0.13  
Sea Level Pressure  
Sea Level Pressure 30.42 in    
Wind  
Wind Speed 8 mph (ENE)    
Max Wind Speed 14 mph    
Max Gust Speed 17 mph    
Visibility 10 miles    
Events      
T = Trace of Precipitation, MM = Missing Value Source: NWS Daily Summary

Daily Weather History Graph

Daily Weather History Graph

Search for Another Location

Airport or City:

Trip Planner

Search our weather history database for the weather conditions in past years. The results will help you decide how hot, cold, wet, or windy it might be!

Date:

Astronomy

Jan. 16, 2013 Rise Set
Actual Time 7:25 AM MST 4:59 PM MST
Civil Twilight 6:55 AM MST 5:30 PM MST
Nautical Twilight 6:21 AM MST 6:04 PM MST
Astronomical Twilight 5:48 AM MST 6:37 PM MST
Moon 9:59 AM MST (1/16) 10:58 PM MST (1/16)
Length of Visible Light 10h 34m
Length of Day
9h 34m
Waxing Crescent, 29% of the Moon is Illuminated
Jan 16
Waxing Crescent
Jan 18
First Quarter
Jan 26
Full
Feb 3
Last Quarter
Feb 10
New

Hourly Weather History & Observations

Time (MST) Temp. Windchill Dew Point Humidity Pressure Visibility Wind Dir Wind Speed Gust Speed Precip Events Conditions
12:53 AM 18.0 °F 6.9 °F 12.0 °F 78% 30.31 in 10.0 mi SE 9.2 mph - N/A   Overcast
1:27 AM 17.6 °F 9.3 °F 12.2 °F 79% 30.14 in 10.0 mi SSE 5.8 mph - N/A   Overcast
1:53 AM 17.1 °F 7.6 °F 10.9 °F 77% 30.31 in 10.0 mi ENE 6.9 mph - N/A   Mostly Cloudy
2:53 AM 15.1 °F - 9.0 °F 77% 30.33 in 10.0 mi Calm Calm - N/A   Clear
3:53 AM 10.9 °F -1.8 °F 7.0 °F 84% 30.36 in 10.0 mi East 9.2 mph - N/A   Clear
5:53 AM 10.0 °F -4.5 °F 6.1 °F 84% 30.38 in 10.0 mi ENE 11.5 mph - N/A   Clear
6:53 AM 10.9 °F 1.4 °F 6.1 °F 81% 30.38 in 10.0 mi NE 5.8 mph - N/A   Clear
7:53 AM 10.0 °F 3.6 °F 5.0 °F 80% 30.41 in 10.0 mi ENE 3.5 mph - N/A   Clear
8:53 AM 12.0 °F 0.5 °F 7.0 °F 80% 30.42 in 10.0 mi NE 8.1 mph - N/A   Clear
9:53 AM 15.1 °F 1.8 °F 9.0 °F 77% 30.42 in 10.0 mi NE 11.5 mph - N/A   Clear
10:53 AM 18.0 °F 6.1 °F 10.9 °F 74% 30.41 in 10.0 mi NE 10.4 mph - N/A   Clear
11:53 AM 19.9 °F 7.3 °F 12.9 °F 74% 30.38 in 10.0 mi NE 12.7 mph - N/A   Clear
1:53 PM 25.0 °F 16.3 °F 16.0 °F 69% 30.34 in 10.0 mi NNE 8.1 mph - N/A   Clear
2:53 PM 26.1 °F 18.4 °F 16.0 °F 66% 30.36 in 10.0 mi NNE 6.9 mph - N/A   Clear
3:53 PM 24.1 °F 14.4 °F 16.0 °F 71% 30.41 in 10.0 mi ENE 9.2 mph - N/A   Clear
4:53 PM 19.0 °F 7.5 °F 12.9 °F 77% 30.47 in 10.0 mi NE 10.4 mph - N/A   Clear
5:53 PM 17.1 °F 7.6 °F 10.9 °F 77% 30.49 in 10.0 mi NNE 6.9 mph - N/A   Clear
6:53 PM 14.0 °F 1.2 °F 8.1 °F 77% 30.51 in 10.0 mi NE 10.4 mph - N/A   Clear
7:53 PM 12.0 °F 2.7 °F 6.1 °F 77% 30.56 in 10.0 mi NE 5.8 mph - N/A   Clear
8:53 PM 10.9 °F -0.8 °F 6.1 °F 81% 30.55 in 10.0 mi ENE 8.1 mph - N/A   Clear
9:53 PM 9.0 °F 2.4 °F 5.0 °F 84% 30.56 in 10.0 mi ENE 3.5 mph - N/A   Clear
10:53 PM 8.1 °F -2.0 °F 3.0 °F 80% 30.55 in 10.0 mi ENE 5.8 mph - N/A   Clear
11:53 PM 10.0 °F 0.4 °F 5.0 °F 80% 30.54 in 10.0 mi Variable 5.8 mph - N/A   Clear